Index of /20260417/WXO-DD/model_rdps/10km/06/023
Name Last modified Size Description
Parent Directory -
20260417T06Z_MSC_RDPS_AbsoluteVorticity_IsbL-0250_RLatLon0.09_PT023H.grib2 2026-04-17 08:44 739K
20260417T06Z_MSC_RDPS_AbsoluteVorticity_IsbL-0500_RLatLon0.09_PT023H.grib2 2026-04-17 08:44 551K
20260417T06Z_MSC_RDPS_AbsoluteVorticity_IsbL-0700_RLatLon0.09_PT023H.grib2 2026-04-17 08:44 610K
20260417T06Z_MSC_RDPS_AbsoluteVorticity_IsbL-0850_RLatLon0.09_PT023H.grib2 2026-04-17 08:44 774K
20260417T06Z_MSC_RDPS_AirTemp_AGL-120m_RLatLon0.09_PT023H.grib2 2026-04-17 08:44 373K
20260417T06Z_MSC_RDPS_AirTemp_AGL-2m_RLatLon0.09_PT023H.grib2 2026-04-17 08:44 626K
20260417T06Z_MSC_RDPS_AirTemp_AGL-40m_RLatLon0.09_PT023H.grib2 2026-04-17 08:44 389K
20260417T06Z_MSC_RDPS_AirTemp_AGL-80m_RLatLon0.09_PT023H.grib2 2026-04-17 08:44 380K
20260417T06Z_MSC_RDPS_AirTemp_IsbL-0001_RLatLon0.09_PT023H.grib2 2026-04-17 08:44 296K
20260417T06Z_MSC_RDPS_AirTemp_IsbL-0005_RLatLon0.09_PT023H.grib2 2026-04-17 08:44 335K
20260417T06Z_MSC_RDPS_AirTemp_IsbL-0010_RLatLon0.09_PT023H.grib2 2026-04-17 08:44 305K
20260417T06Z_MSC_RDPS_AirTemp_IsbL-0020_RLatLon0.09_PT023H.grib2 2026-04-17 08:44 361K
20260417T06Z_MSC_RDPS_AirTemp_IsbL-0030_RLatLon0.09_PT023H.grib2 2026-04-17 08:44 378K
20260417T06Z_MSC_RDPS_AirTemp_IsbL-0050_RLatLon0.09_PT023H.grib2 2026-04-17 08:44 324K
20260417T06Z_MSC_RDPS_AirTemp_IsbL-0100_RLatLon0.09_PT023H.grib2 2026-04-17 08:44 423K
20260417T06Z_MSC_RDPS_AirTemp_IsbL-0150_RLatLon0.09_PT023H.grib2 2026-04-17 08:44 410K
20260417T06Z_MSC_RDPS_AirTemp_IsbL-0175_RLatLon0.09_PT023H.grib2 2026-04-17 08:44 408K
20260417T06Z_MSC_RDPS_AirTemp_IsbL-0200_RLatLon0.09_PT023H.grib2 2026-04-17 08:44 411K
20260417T06Z_MSC_RDPS_AirTemp_IsbL-0225_RLatLon0.09_PT023H.grib2 2026-04-17 08:44 415K
20260417T06Z_MSC_RDPS_AirTemp_IsbL-0250_RLatLon0.09_PT023H.grib2 2026-04-17 08:44 423K
20260417T06Z_MSC_RDPS_AirTemp_IsbL-0275_RLatLon0.09_PT023H.grib2 2026-04-17 08:44 404K
20260417T06Z_MSC_RDPS_AirTemp_IsbL-0300_RLatLon0.09_PT023H.grib2 2026-04-17 08:44 409K
20260417T06Z_MSC_RDPS_AirTemp_IsbL-0350_RLatLon0.09_PT023H.grib2 2026-04-17 08:44 418K
20260417T06Z_MSC_RDPS_AirTemp_IsbL-0400_RLatLon0.09_PT023H.grib2 2026-04-17 08:44 418K
20260417T06Z_MSC_RDPS_AirTemp_IsbL-0450_RLatLon0.09_PT023H.grib2 2026-04-17 08:44 391K
20260417T06Z_MSC_RDPS_AirTemp_IsbL-0500_RLatLon0.09_PT023H.grib2 2026-04-17 08:44 403K
20260417T06Z_MSC_RDPS_AirTemp_IsbL-0550_RLatLon0.09_PT023H.grib2 2026-04-17 08:44 420K
20260417T06Z_MSC_RDPS_AirTemp_IsbL-0600_RLatLon0.09_PT023H.grib2 2026-04-17 08:44 438K
20260417T06Z_MSC_RDPS_AirTemp_IsbL-0650_RLatLon0.09_PT023H.grib2 2026-04-17 08:44 453K
20260417T06Z_MSC_RDPS_AirTemp_IsbL-0700_RLatLon0.09_PT023H.grib2 2026-04-17 08:44 479K
20260417T06Z_MSC_RDPS_AirTemp_IsbL-0750_RLatLon0.09_PT023H.grib2 2026-04-17 08:44 406K
20260417T06Z_MSC_RDPS_AirTemp_IsbL-0800_RLatLon0.09_PT023H.grib2 2026-04-17 08:44 452K
20260417T06Z_MSC_RDPS_AirTemp_IsbL-0850_RLatLon0.09_PT023H.grib2 2026-04-17 08:44 500K
20260417T06Z_MSC_RDPS_AirTemp_IsbL-0875_RLatLon0.09_PT023H.grib2 2026-04-17 08:44 515K
20260417T06Z_MSC_RDPS_AirTemp_IsbL-0900_RLatLon0.09_PT023H.grib2 2026-04-17 08:44 522K
20260417T06Z_MSC_RDPS_AirTemp_IsbL-0925_RLatLon0.09_PT023H.grib2 2026-04-17 08:44 521K
20260417T06Z_MSC_RDPS_AirTemp_IsbL-0950_RLatLon0.09_PT023H.grib2 2026-04-17 08:44 519K
20260417T06Z_MSC_RDPS_AirTemp_IsbL-0970_RLatLon0.09_PT023H.grib2 2026-04-17 08:44 512K
20260417T06Z_MSC_RDPS_AirTemp_IsbL-0985_RLatLon0.09_PT023H.grib2 2026-04-17 08:44 501K
20260417T06Z_MSC_RDPS_AirTemp_IsbL-1000_RLatLon0.09_PT023H.grib2 2026-04-17 08:44 483K
20260417T06Z_MSC_RDPS_AirTemp_IsbL-1015_RLatLon0.09_PT023H.grib2 2026-04-17 08:44 481K
20260417T06Z_MSC_RDPS_Albedo_Sfc_RLatLon0.09_PT023H.grib2 2026-04-17 08:44 165K
20260417T06Z_MSC_RDPS_CAPE_Sfc_RLatLon0.09_PT023H.grib2 2026-04-17 08:44 1.6M
20260417T06Z_MSC_RDPS_CIN_Sfc_RLatLon0.09_PT023H.grib2 2026-04-17 08:44 1.1M
20260417T06Z_MSC_RDPS_CloudWater_EAtm_RLatLon0.09_PT023H.grib2 2026-04-17 08:44 210K
20260417T06Z_MSC_RDPS_ConvectivePrecip-Accum_Sfc_RLatLon0.09_PT023H.grib2 2026-04-17 08:44 833K
20260417T06Z_MSC_RDPS_DewPointDepression_AGL-2m_RLatLon0.09_PT023H.grib2 2026-04-17 08:44 385K
20260417T06Z_MSC_RDPS_DewPointDepression_IsbL-0001_RLatLon0.09_PT023H.grib2 2026-04-17 08:44 193
20260417T06Z_MSC_RDPS_DewPointDepression_IsbL-0005_RLatLon0.09_PT023H.grib2 2026-04-17 08:44 193
20260417T06Z_MSC_RDPS_DewPointDepression_IsbL-0010_RLatLon0.09_PT023H.grib2 2026-04-17 08:44 193
20260417T06Z_MSC_RDPS_DewPointDepression_IsbL-0020_RLatLon0.09_PT023H.grib2 2026-04-17 08:44 193
20260417T06Z_MSC_RDPS_DewPointDepression_IsbL-0030_RLatLon0.09_PT023H.grib2 2026-04-17 08:44 6.1K
20260417T06Z_MSC_RDPS_DewPointDepression_IsbL-0050_RLatLon0.09_PT023H.grib2 2026-04-17 08:44 104K
20260417T06Z_MSC_RDPS_DewPointDepression_IsbL-0100_RLatLon0.09_PT023H.grib2 2026-04-17 08:44 123K
20260417T06Z_MSC_RDPS_DewPointDepression_IsbL-0150_RLatLon0.09_PT023H.grib2 2026-04-17 08:44 143K
20260417T06Z_MSC_RDPS_DewPointDepression_IsbL-0175_RLatLon0.09_PT023H.grib2 2026-04-17 08:44 176K
20260417T06Z_MSC_RDPS_DewPointDepression_IsbL-0200_RLatLon0.09_PT023H.grib2 2026-04-17 08:44 209K
20260417T06Z_MSC_RDPS_DewPointDepression_IsbL-0225_RLatLon0.09_PT023H.grib2 2026-04-17 08:44 247K
20260417T06Z_MSC_RDPS_DewPointDepression_IsbL-0250_RLatLon0.09_PT023H.grib2 2026-04-17 08:44 293K
20260417T06Z_MSC_RDPS_DewPointDepression_IsbL-0275_RLatLon0.09_PT023H.grib2 2026-04-17 08:44 299K
20260417T06Z_MSC_RDPS_DewPointDepression_IsbL-0300_RLatLon0.09_PT023H.grib2 2026-04-17 08:44 314K
20260417T06Z_MSC_RDPS_DewPointDepression_IsbL-0350_RLatLon0.09_PT023H.grib2 2026-04-17 08:44 317K
20260417T06Z_MSC_RDPS_DewPointDepression_IsbL-0400_RLatLon0.09_PT023H.grib2 2026-04-17 08:44 328K
20260417T06Z_MSC_RDPS_DewPointDepression_IsbL-0450_RLatLon0.09_PT023H.grib2 2026-04-17 08:44 336K
20260417T06Z_MSC_RDPS_DewPointDepression_IsbL-0500_RLatLon0.09_PT023H.grib2 2026-04-17 08:44 340K
20260417T06Z_MSC_RDPS_DewPointDepression_IsbL-0550_RLatLon0.09_PT023H.grib2 2026-04-17 08:44 352K
20260417T06Z_MSC_RDPS_DewPointDepression_IsbL-0600_RLatLon0.09_PT023H.grib2 2026-04-17 08:44 365K
20260417T06Z_MSC_RDPS_DewPointDepression_IsbL-0650_RLatLon0.09_PT023H.grib2 2026-04-17 08:44 377K
20260417T06Z_MSC_RDPS_DewPointDepression_IsbL-0700_RLatLon0.09_PT023H.grib2 2026-04-17 08:44 390K
20260417T06Z_MSC_RDPS_DewPointDepression_IsbL-0750_RLatLon0.09_PT023H.grib2 2026-04-17 08:44 410K
20260417T06Z_MSC_RDPS_DewPointDepression_IsbL-0800_RLatLon0.09_PT023H.grib2 2026-04-17 08:44 443K
20260417T06Z_MSC_RDPS_DewPointDepression_IsbL-0850_RLatLon0.09_PT023H.grib2 2026-04-17 08:44 467K
20260417T06Z_MSC_RDPS_DewPointDepression_IsbL-0875_RLatLon0.09_PT023H.grib2 2026-04-17 08:44 465K
20260417T06Z_MSC_RDPS_DewPointDepression_IsbL-0900_RLatLon0.09_PT023H.grib2 2026-04-17 08:44 458K
20260417T06Z_MSC_RDPS_DewPointDepression_IsbL-0925_RLatLon0.09_PT023H.grib2 2026-04-17 08:44 445K
20260417T06Z_MSC_RDPS_DewPointDepression_IsbL-0950_RLatLon0.09_PT023H.grib2 2026-04-17 08:44 435K
20260417T06Z_MSC_RDPS_DewPointDepression_IsbL-0970_RLatLon0.09_PT023H.grib2 2026-04-17 08:44 427K
20260417T06Z_MSC_RDPS_DewPointDepression_IsbL-0985_RLatLon0.09_PT023H.grib2 2026-04-17 08:44 424K
20260417T06Z_MSC_RDPS_DewPointDepression_IsbL-1000_RLatLon0.09_PT023H.grib2 2026-04-17 08:44 419K
20260417T06Z_MSC_RDPS_DewPointDepression_IsbL-1015_RLatLon0.09_PT023H.grib2 2026-04-17 08:44 410K
20260417T06Z_MSC_RDPS_DewPoint_AGL-2m_RLatLon0.09_PT023H.grib2 2026-04-17 08:44 304K
20260417T06Z_MSC_RDPS_DownwardLongwaveRadiationFlux-Accum_Sfc_RLatLon0.09_PT023H.grib2 2026-04-17 08:44 432K
20260417T06Z_MSC_RDPS_DownwardShortwaveRadiationFlux-Accum_NTAtm_RLatLon0.09_PT023H.grib2 2026-04-17 08:44 152K
20260417T06Z_MSC_RDPS_DownwardShortwaveRadiationFlux-Accum_Sfc_RLatLon0.09_PT023H.grib2 2026-04-17 08:44 618K
20260417T06Z_MSC_RDPS_FreezingRain-Accum1h_Sfc_RLatLon0.09_PT023H.grib2 2026-04-17 08:44 22K
20260417T06Z_MSC_RDPS_FreezingRain-Accum_Sfc_RLatLon0.09_PT023H.grib2 2026-04-17 08:44 101K
20260417T06Z_MSC_RDPS_GeopotentialHeight_IsbL-0001_RLatLon0.09_PT023H.grib2 2026-04-17 08:44 267K
20260417T06Z_MSC_RDPS_GeopotentialHeight_IsbL-0005_RLatLon0.09_PT023H.grib2 2026-04-17 08:44 234K
20260417T06Z_MSC_RDPS_GeopotentialHeight_IsbL-0010_RLatLon0.09_PT023H.grib2 2026-04-17 08:44 308K
20260417T06Z_MSC_RDPS_GeopotentialHeight_IsbL-0020_RLatLon0.09_PT023H.grib2 2026-04-17 08:44 335K
20260417T06Z_MSC_RDPS_GeopotentialHeight_IsbL-0030_RLatLon0.09_PT023H.grib2 2026-04-17 08:44 339K
20260417T06Z_MSC_RDPS_GeopotentialHeight_IsbL-0050_RLatLon0.09_PT023H.grib2 2026-04-17 08:44 311K
20260417T06Z_MSC_RDPS_GeopotentialHeight_IsbL-0100_RLatLon0.09_PT023H.grib2 2026-04-17 08:44 288K
20260417T06Z_MSC_RDPS_GeopotentialHeight_IsbL-0150_RLatLon0.09_PT023H.grib2 2026-04-17 08:44 260K
20260417T06Z_MSC_RDPS_GeopotentialHeight_IsbL-0175_RLatLon0.09_PT023H.grib2 2026-04-17 08:44 262K
20260417T06Z_MSC_RDPS_GeopotentialHeight_IsbL-0200_RLatLon0.09_PT023H.grib2 2026-04-17 08:44 264K
20260417T06Z_MSC_RDPS_GeopotentialHeight_IsbL-0225_RLatLon0.09_PT023H.grib2 2026-04-17 08:44 265K
20260417T06Z_MSC_RDPS_GeopotentialHeight_IsbL-0250_RLatLon0.09_PT023H.grib2 2026-04-17 08:44 266K
20260417T06Z_MSC_RDPS_GeopotentialHeight_IsbL-0275_RLatLon0.09_PT023H.grib2 2026-04-17 08:44 265K
20260417T06Z_MSC_RDPS_GeopotentialHeight_IsbL-0300_RLatLon0.09_PT023H.grib2 2026-04-17 08:44 264K
20260417T06Z_MSC_RDPS_GeopotentialHeight_IsbL-0350_RLatLon0.09_PT023H.grib2 2026-04-17 08:44 228K
20260417T06Z_MSC_RDPS_GeopotentialHeight_IsbL-0400_RLatLon0.09_PT023H.grib2 2026-04-17 08:44 225K
20260417T06Z_MSC_RDPS_GeopotentialHeight_IsbL-0450_RLatLon0.09_PT023H.grib2 2026-04-17 08:44 221K
20260417T06Z_MSC_RDPS_GeopotentialHeight_IsbL-0500_RLatLon0.09_PT023H.grib2 2026-04-17 08:44 288K
20260417T06Z_MSC_RDPS_GeopotentialHeight_IsbL-0550_RLatLon0.09_PT023H.grib2 2026-04-17 08:44 284K
20260417T06Z_MSC_RDPS_GeopotentialHeight_IsbL-0600_RLatLon0.09_PT023H.grib2 2026-04-17 08:44 280K
20260417T06Z_MSC_RDPS_GeopotentialHeight_IsbL-0650_RLatLon0.09_PT023H.grib2 2026-04-17 08:44 277K
20260417T06Z_MSC_RDPS_GeopotentialHeight_IsbL-0700_RLatLon0.09_PT023H.grib2 2026-04-17 08:44 248K
20260417T06Z_MSC_RDPS_GeopotentialHeight_IsbL-0750_RLatLon0.09_PT023H.grib2 2026-04-17 08:44 249K
20260417T06Z_MSC_RDPS_GeopotentialHeight_IsbL-0800_RLatLon0.09_PT023H.grib2 2026-04-17 08:44 257K
20260417T06Z_MSC_RDPS_GeopotentialHeight_IsbL-0850_RLatLon0.09_PT023H.grib2 2026-04-17 08:44 265K
20260417T06Z_MSC_RDPS_GeopotentialHeight_IsbL-0875_RLatLon0.09_PT023H.grib2 2026-04-17 08:44 269K
20260417T06Z_MSC_RDPS_GeopotentialHeight_IsbL-0900_RLatLon0.09_PT023H.grib2 2026-04-17 08:44 273K
20260417T06Z_MSC_RDPS_GeopotentialHeight_IsbL-0925_RLatLon0.09_PT023H.grib2 2026-04-17 08:44 275K
20260417T06Z_MSC_RDPS_GeopotentialHeight_IsbL-0950_RLatLon0.09_PT023H.grib2 2026-04-17 08:44 279K
20260417T06Z_MSC_RDPS_GeopotentialHeight_IsbL-0970_RLatLon0.09_PT023H.grib2 2026-04-17 08:44 282K
20260417T06Z_MSC_RDPS_GeopotentialHeight_IsbL-0985_RLatLon0.09_PT023H.grib2 2026-04-17 08:44 288K
20260417T06Z_MSC_RDPS_GeopotentialHeight_IsbL-1000_RLatLon0.09_PT023H.grib2 2026-04-17 08:44 297K
20260417T06Z_MSC_RDPS_GeopotentialHeight_IsbL-1015_RLatLon0.09_PT023H.grib2 2026-04-17 08:44 307K
20260417T06Z_MSC_RDPS_Humidex_Sfc_RLatLon0.09_PT023H.grib2 2026-04-17 08:44 2.4M
20260417T06Z_MSC_RDPS_IcePellets-Accum1h_Sfc_RLatLon0.09_PT023H.grib2 2026-04-17 08:44 7.8K
20260417T06Z_MSC_RDPS_IcePellets-Accum_Sfc_RLatLon0.09_PT023H.grib2 2026-04-17 08:44 31K
20260417T06Z_MSC_RDPS_KIndex_Sfc_RLatLon0.09_PT023H.grib2 2026-04-17 08:44 2.4M
20260417T06Z_MSC_RDPS_LatentHeatNetFlux_Sfc_RLatLon0.09_PT023H.grib2 2026-04-17 08:44 223K
20260417T06Z_MSC_RDPS_LiftedIndex-MU-VT_IsbL-0500_RLatLon0.09_PT023H.grib2 2026-04-17 08:44 2.4M
20260417T06Z_MSC_RDPS_NetLongwaveRadiationFlux-Accum_Sfc_RLatLon0.09_PT023H.grib2 2026-04-17 08:44 569K
20260417T06Z_MSC_RDPS_NetShortwaveRadiationFlux-Accum_Sfc_RLatLon0.09_PT023H.grib2 2026-04-17 08:44 624K
20260417T06Z_MSC_RDPS_PlanetaryBoundaryLayerHeight_Sfc_RLatLon0.09_PT023H.grib2 2026-04-17 08:44 1.1M
20260417T06Z_MSC_RDPS_Precip-Accum1h_Sfc_RLatLon0.09_PT023H.grib2 2026-04-17 08:44 1.3M
20260417T06Z_MSC_RDPS_Precip-Accum_Sfc_RLatLon0.09_PT023H.grib2 2026-04-17 08:44 1.9M
20260417T06Z_MSC_RDPS_PrecipRate_Sfc_RLatLon0.09_PT023H.grib2 2026-04-17 08:44 231K
20260417T06Z_MSC_RDPS_PrecipType-Instant_Sfc_RLatLon0.09_PT023H.grib2 2026-04-17 08:44 543K
20260417T06Z_MSC_RDPS_Pressure-Trend3h_Sfc_RLatLon0.09_PT023H.grib2 2026-04-17 08:44 1.2M
20260417T06Z_MSC_RDPS_Pressure_MSL_RLatLon0.09_PT023H.grib2 2026-04-17 08:44 324K
20260417T06Z_MSC_RDPS_Pressure_PVU-1.5_RLatLon0.09_PT023H.grib2 2026-04-17 08:44 2.3M
20260417T06Z_MSC_RDPS_Pressure_PVU-1_RLatLon0.09_PT023H.grib2 2026-04-17 08:44 2.4M
20260417T06Z_MSC_RDPS_Pressure_PVU-2_RLatLon0.09_PT023H.grib2 2026-04-17 08:44 2.4M
20260417T06Z_MSC_RDPS_Pressure_Sfc_RLatLon0.09_PT023H.grib2 2026-04-17 08:44 499K
20260417T06Z_MSC_RDPS_RadiativeTemp_Sfc_RLatLon0.09_PT023H.grib2 2026-04-17 08:44 300K
20260417T06Z_MSC_RDPS_Rain-Accum1h_Sfc_RLatLon0.09_PT023H.grib2 2026-04-17 08:44 646K
20260417T06Z_MSC_RDPS_Rain-Accum_Sfc_RLatLon0.09_PT023H.grib2 2026-04-17 08:44 1.4M
20260417T06Z_MSC_RDPS_RelativeHumidity_AGL-2m_RLatLon0.09_PT023H.grib2 2026-04-17 08:44 1.0M
20260417T06Z_MSC_RDPS_RelativeHumidity_IsbL-0010_RLatLon0.09_PT023H.grib2 2026-04-17 08:44 570K
20260417T06Z_MSC_RDPS_RelativeHumidity_IsbL-0020_RLatLon0.09_PT023H.grib2 2026-04-17 08:44 405K
20260417T06Z_MSC_RDPS_RelativeHumidity_IsbL-0030_RLatLon0.09_PT023H.grib2 2026-04-17 08:44 357K
20260417T06Z_MSC_RDPS_RelativeHumidity_IsbL-0050_RLatLon0.09_PT023H.grib2 2026-04-17 08:44 385K
20260417T06Z_MSC_RDPS_RelativeHumidity_IsbL-0100_RLatLon0.09_PT023H.grib2 2026-04-17 08:44 366K
20260417T06Z_MSC_RDPS_RelativeHumidity_IsbL-0150_RLatLon0.09_PT023H.grib2 2026-04-17 08:44 379K
20260417T06Z_MSC_RDPS_RelativeHumidity_IsbL-0175_RLatLon0.09_PT023H.grib2 2026-04-17 08:44 464K
20260417T06Z_MSC_RDPS_RelativeHumidity_IsbL-0200_RLatLon0.09_PT023H.grib2 2026-04-17 08:44 543K
20260417T06Z_MSC_RDPS_RelativeHumidity_IsbL-0225_RLatLon0.09_PT023H.grib2 2026-04-17 08:44 613K
20260417T06Z_MSC_RDPS_RelativeHumidity_IsbL-0250_RLatLon0.09_PT023H.grib2 2026-04-17 08:44 685K
20260417T06Z_MSC_RDPS_RelativeHumidity_IsbL-0275_RLatLon0.09_PT023H.grib2 2026-04-17 08:44 704K
20260417T06Z_MSC_RDPS_RelativeHumidity_IsbL-0300_RLatLon0.09_PT023H.grib2 2026-04-17 08:44 741K
20260417T06Z_MSC_RDPS_RelativeHumidity_IsbL-0350_RLatLon0.09_PT023H.grib2 2026-04-17 08:44 748K
20260417T06Z_MSC_RDPS_RelativeHumidity_IsbL-0400_RLatLon0.09_PT023H.grib2 2026-04-17 08:44 763K
20260417T06Z_MSC_RDPS_RelativeHumidity_IsbL-0450_RLatLon0.09_PT023H.grib2 2026-04-17 08:44 776K
20260417T06Z_MSC_RDPS_RelativeHumidity_IsbL-0500_RLatLon0.09_PT023H.grib2 2026-04-17 08:44 799K
20260417T06Z_MSC_RDPS_RelativeHumidity_IsbL-0550_RLatLon0.09_PT023H.grib2 2026-04-17 08:44 825K
20260417T06Z_MSC_RDPS_RelativeHumidity_IsbL-0600_RLatLon0.09_PT023H.grib2 2026-04-17 08:44 844K
20260417T06Z_MSC_RDPS_RelativeHumidity_IsbL-0650_RLatLon0.09_PT023H.grib2 2026-04-17 08:44 855K
20260417T06Z_MSC_RDPS_RelativeHumidity_IsbL-0700_RLatLon0.09_PT023H.grib2 2026-04-17 08:44 876K
20260417T06Z_MSC_RDPS_RelativeHumidity_IsbL-0750_RLatLon0.09_PT023H.grib2 2026-04-17 08:44 918K
20260417T06Z_MSC_RDPS_RelativeHumidity_IsbL-0800_RLatLon0.09_PT023H.grib2 2026-04-17 08:44 1.0M
20260417T06Z_MSC_RDPS_RelativeHumidity_IsbL-0850_RLatLon0.09_PT023H.grib2 2026-04-17 08:44 1.0M
20260417T06Z_MSC_RDPS_RelativeHumidity_IsbL-0875_RLatLon0.09_PT023H.grib2 2026-04-17 08:44 1.0M
20260417T06Z_MSC_RDPS_RelativeHumidity_IsbL-0900_RLatLon0.09_PT023H.grib2 2026-04-17 08:44 1.1M
20260417T06Z_MSC_RDPS_RelativeHumidity_IsbL-0925_RLatLon0.09_PT023H.grib2 2026-04-17 08:44 1.1M
20260417T06Z_MSC_RDPS_RelativeHumidity_IsbL-0950_RLatLon0.09_PT023H.grib2 2026-04-17 08:44 1.1M
20260417T06Z_MSC_RDPS_RelativeHumidity_IsbL-0970_RLatLon0.09_PT023H.grib2 2026-04-17 08:44 1.0M
20260417T06Z_MSC_RDPS_RelativeHumidity_IsbL-0985_RLatLon0.09_PT023H.grib2 2026-04-17 08:44 1.0M
20260417T06Z_MSC_RDPS_RelativeHumidity_IsbL-1000_RLatLon0.09_PT023H.grib2 2026-04-17 08:44 1.0M
20260417T06Z_MSC_RDPS_RelativeHumidity_IsbL-1015_RLatLon0.09_PT023H.grib2 2026-04-17 08:44 1.0M
20260417T06Z_MSC_RDPS_Runoff-Accum_Sfc_RLatLon0.09_PT023H.grib2 2026-04-17 08:44 48K
20260417T06Z_MSC_RDPS_SWEATIndex_Sfc_RLatLon0.09_PT023H.grib2 2026-04-17 08:44 2.4M
20260417T06Z_MSC_RDPS_SeeingIndex_EAtm_RLatLon0.09_PT023H.grib2 2026-04-17 08:44 1.0M
20260417T06Z_MSC_RDPS_SensibleHeatNetFlux_Sfc_RLatLon0.09_PT023H.grib2 2026-04-17 08:44 291K
20260417T06Z_MSC_RDPS_ShowalterIndex_IsbL-0500_RLatLon0.09_PT023H.grib2 2026-04-17 08:44 2.6M
20260417T06Z_MSC_RDPS_SkyTransparencyIndex_EAtm_RLatLon0.09_PT023H.grib2 2026-04-17 08:44 698K
20260417T06Z_MSC_RDPS_Snow-Accum1h_Sfc_RLatLon0.09_PT023H.grib2 2026-04-17 08:44 483K
20260417T06Z_MSC_RDPS_Snow-Accum_Sfc_RLatLon0.09_PT023H.grib2 2026-04-17 08:44 766K
20260417T06Z_MSC_RDPS_SnowDensity_Sfc_RLatLon0.09_PT023H.grib2 2026-04-17 08:44 178K
20260417T06Z_MSC_RDPS_SnowDepth_Sfc_RLatLon0.09_PT023H.grib2 2026-04-17 08:44 731K
20260417T06Z_MSC_RDPS_SoilTemp_DBS-0to10cm_RLatLon0.09_PT023H.grib2 2026-04-17 08:44 218K
20260417T06Z_MSC_RDPS_SoilTemp_Sfc_RLatLon0.09_PT023H.grib2 2026-04-17 08:44 256K
20260417T06Z_MSC_RDPS_SoilVolumetricIceContent_Sfc_RLatLon0.09_PT023H.grib2 2026-04-17 08:44 176K
20260417T06Z_MSC_RDPS_SoilVolumetricWaterContent_DBS-0to10cm_RLatLon0.09_PT023H.grib2 2026-04-17 08:44 246K
20260417T06Z_MSC_RDPS_SoilVolumetricWaterContent_DBS-0to1cm_RLatLon0.09_PT023H.grib2 2026-04-17 08:44 332K
20260417T06Z_MSC_RDPS_SpecificHumidity_AGL-120m_RLatLon0.09_PT023H.grib2 2026-04-17 08:44 469K
20260417T06Z_MSC_RDPS_SpecificHumidity_AGL-2m_RLatLon0.09_PT023H.grib2 2026-04-17 08:44 625K
20260417T06Z_MSC_RDPS_SpecificHumidity_AGL-40m_RLatLon0.09_PT023H.grib2 2026-04-17 08:44 473K
20260417T06Z_MSC_RDPS_SpecificHumidity_AGL-80m_RLatLon0.09_PT023H.grib2 2026-04-17 08:44 469K
20260417T06Z_MSC_RDPS_SpecificHumidity_IsbL-0001_RLatLon0.09_PT023H.grib2 2026-04-17 08:44 298K
20260417T06Z_MSC_RDPS_SpecificHumidity_IsbL-0005_RLatLon0.09_PT023H.grib2 2026-04-17 08:44 348K
20260417T06Z_MSC_RDPS_SpecificHumidity_IsbL-0010_RLatLon0.09_PT023H.grib2 2026-04-17 08:44 385K
20260417T06Z_MSC_RDPS_SpecificHumidity_IsbL-0020_RLatLon0.09_PT023H.grib2 2026-04-17 08:44 385K
20260417T06Z_MSC_RDPS_SpecificHumidity_IsbL-0030_RLatLon0.09_PT023H.grib2 2026-04-17 08:44 437K
20260417T06Z_MSC_RDPS_SpecificHumidity_IsbL-0050_RLatLon0.09_PT023H.grib2 2026-04-17 08:44 467K
20260417T06Z_MSC_RDPS_SpecificHumidity_IsbL-0100_RLatLon0.09_PT023H.grib2 2026-04-17 08:44 384K
20260417T06Z_MSC_RDPS_SpecificHumidity_IsbL-0150_RLatLon0.09_PT023H.grib2 2026-04-17 08:44 462K
20260417T06Z_MSC_RDPS_SpecificHumidity_IsbL-0175_RLatLon0.09_PT023H.grib2 2026-04-17 08:44 530K
20260417T06Z_MSC_RDPS_SpecificHumidity_IsbL-0200_RLatLon0.09_PT023H.grib2 2026-04-17 08:44 546K
20260417T06Z_MSC_RDPS_SpecificHumidity_IsbL-0225_RLatLon0.09_PT023H.grib2 2026-04-17 08:44 550K
20260417T06Z_MSC_RDPS_SpecificHumidity_IsbL-0250_RLatLon0.09_PT023H.grib2 2026-04-17 08:44 551K
20260417T06Z_MSC_RDPS_SpecificHumidity_IsbL-0275_RLatLon0.09_PT023H.grib2 2026-04-17 08:44 460K
20260417T06Z_MSC_RDPS_SpecificHumidity_IsbL-0300_RLatLon0.09_PT023H.grib2 2026-04-17 08:44 526K
20260417T06Z_MSC_RDPS_SpecificHumidity_IsbL-0350_RLatLon0.09_PT023H.grib2 2026-04-17 08:44 509K
20260417T06Z_MSC_RDPS_SpecificHumidity_IsbL-0400_RLatLon0.09_PT023H.grib2 2026-04-17 08:44 493K
20260417T06Z_MSC_RDPS_SpecificHumidity_IsbL-0450_RLatLon0.09_PT023H.grib2 2026-04-17 08:44 551K
20260417T06Z_MSC_RDPS_SpecificHumidity_IsbL-0500_RLatLon0.09_PT023H.grib2 2026-04-17 08:44 491K
20260417T06Z_MSC_RDPS_SpecificHumidity_IsbL-0550_RLatLon0.09_PT023H.grib2 2026-04-17 08:44 550K
20260417T06Z_MSC_RDPS_SpecificHumidity_IsbL-0600_RLatLon0.09_PT023H.grib2 2026-04-17 08:44 620K
20260417T06Z_MSC_RDPS_SpecificHumidity_IsbL-0650_RLatLon0.09_PT023H.grib2 2026-04-17 08:44 661K
20260417T06Z_MSC_RDPS_SpecificHumidity_IsbL-0700_RLatLon0.09_PT023H.grib2 2026-04-17 08:44 578K
20260417T06Z_MSC_RDPS_SpecificHumidity_IsbL-0750_RLatLon0.09_PT023H.grib2 2026-04-17 08:44 631K
20260417T06Z_MSC_RDPS_SpecificHumidity_IsbL-0800_RLatLon0.09_PT023H.grib2 2026-04-17 08:44 705K
20260417T06Z_MSC_RDPS_SpecificHumidity_IsbL-0850_RLatLon0.09_PT023H.grib2 2026-04-17 08:44 786K
20260417T06Z_MSC_RDPS_SpecificHumidity_IsbL-0875_RLatLon0.09_PT023H.grib2 2026-04-17 08:44 805K
20260417T06Z_MSC_RDPS_SpecificHumidity_IsbL-0900_RLatLon0.09_PT023H.grib2 2026-04-17 08:44 818K
20260417T06Z_MSC_RDPS_SpecificHumidity_IsbL-0925_RLatLon0.09_PT023H.grib2 2026-04-17 08:44 820K
20260417T06Z_MSC_RDPS_SpecificHumidity_IsbL-0950_RLatLon0.09_PT023H.grib2 2026-04-17 08:44 818K
20260417T06Z_MSC_RDPS_SpecificHumidity_IsbL-0970_RLatLon0.09_PT023H.grib2 2026-04-17 08:44 806K
20260417T06Z_MSC_RDPS_SpecificHumidity_IsbL-0985_RLatLon0.09_PT023H.grib2 2026-04-17 08:44 798K
20260417T06Z_MSC_RDPS_SpecificHumidity_IsbL-1000_RLatLon0.09_PT023H.grib2 2026-04-17 08:44 788K
20260417T06Z_MSC_RDPS_SpecificHumidity_IsbL-1015_RLatLon0.09_PT023H.grib2 2026-04-17 08:44 778K
20260417T06Z_MSC_RDPS_SpecificHumidity_Sfc_RLatLon0.09_PT023H.grib2 2026-04-17 08:44 280K
20260417T06Z_MSC_RDPS_StormRelativeHelicity_EtaL-10000_RLatLon0.09_PT023H.grib2 2026-04-17 08:44 1.1M
20260417T06Z_MSC_RDPS_StormSeverityIndex_EtaL-10000_RLatLon0.09_PT023H.grib2 2026-04-17 08:44 1.1M
20260417T06Z_MSC_RDPS_Thickness_IsbL-0850to0700_RLatLon0.09_PT023H.grib2 2026-04-17 08:44 173K
20260417T06Z_MSC_RDPS_Thickness_IsbL-1000to0500_RLatLon0.09_PT023H.grib2 2026-04-17 08:44 195K
20260417T06Z_MSC_RDPS_Thickness_IsbL-1000to0850_RLatLon0.09_PT023H.grib2 2026-04-17 08:44 183K
20260417T06Z_MSC_RDPS_TotalCloudCover_Sfc_RLatLon0.09_PT023H.grib2 2026-04-17 08:44 657K
20260417T06Z_MSC_RDPS_TotalTotalsIndex_Sfc_RLatLon0.09_PT023H.grib2 2026-04-17 08:44 2.4M
20260417T06Z_MSC_RDPS_UVIndex-ClearSky_Sfc_RLatLon0.09_PT023H.grib2 2026-04-17 08:44 86K
20260417T06Z_MSC_RDPS_UVIndex_Sfc_RLatLon0.09_PT023H.grib2 2026-04-17 08:44 142K
20260417T06Z_MSC_RDPS_UpwardLongwaveRadiationFlux_NTAtm_RLatLon0.09_PT023H.grib2 2026-04-17 08:44 476K
20260417T06Z_MSC_RDPS_UpwardShortwaveRadiationFlux_NTAtm_RLatLon0.09_PT023H.grib2 2026-04-17 08:44 122K
20260417T06Z_MSC_RDPS_VerticalVelocity_IsbL-0250_RLatLon0.09_PT023H.grib2 2026-04-17 08:44 684K
20260417T06Z_MSC_RDPS_VerticalVelocity_IsbL-0500_RLatLon0.09_PT023H.grib2 2026-04-17 08:44 672K
20260417T06Z_MSC_RDPS_VerticalVelocity_IsbL-0700_RLatLon0.09_PT023H.grib2 2026-04-17 08:44 582K
20260417T06Z_MSC_RDPS_VerticalVelocity_IsbL-0850_RLatLon0.09_PT023H.grib2 2026-04-17 08:44 684K
20260417T06Z_MSC_RDPS_VerticalWindShear_EtaL-6500_RLatLon0.09_PT023H.grib2 2026-04-17 08:44 1.2M
20260417T06Z_MSC_RDPS_WindChill_Sfc_RLatLon0.09_PT023H.grib2 2026-04-17 08:44 1.2M
20260417T06Z_MSC_RDPS_WindDir_AGL-10m_RLatLon0.09_PT023H.grib2 2026-04-17 08:44 960K
20260417T06Z_MSC_RDPS_WindDir_AGL-120m_RLatLon0.09_PT023H.grib2 2026-04-17 08:44 586K
20260417T06Z_MSC_RDPS_WindDir_AGL-40m_RLatLon0.09_PT023H.grib2 2026-04-17 08:44 624K
20260417T06Z_MSC_RDPS_WindDir_AGL-80m_RLatLon0.09_PT023H.grib2 2026-04-17 08:44 601K
20260417T06Z_MSC_RDPS_WindDir_IsbL-0001_RLatLon0.09_PT023H.grib2 2026-04-17 08:44 258K
20260417T06Z_MSC_RDPS_WindDir_IsbL-0005_RLatLon0.09_PT023H.grib2 2026-04-17 08:44 361K
20260417T06Z_MSC_RDPS_WindDir_IsbL-0010_RLatLon0.09_PT023H.grib2 2026-04-17 08:44 357K
20260417T06Z_MSC_RDPS_WindDir_IsbL-0020_RLatLon0.09_PT023H.grib2 2026-04-17 08:44 382K
20260417T06Z_MSC_RDPS_WindDir_IsbL-0030_RLatLon0.09_PT023H.grib2 2026-04-17 08:44 375K
20260417T06Z_MSC_RDPS_WindDir_IsbL-0050_RLatLon0.09_PT023H.grib2 2026-04-17 08:44 396K
20260417T06Z_MSC_RDPS_WindDir_IsbL-0100_RLatLon0.09_PT023H.grib2 2026-04-17 08:44 389K
20260417T06Z_MSC_RDPS_WindDir_IsbL-0150_RLatLon0.09_PT023H.grib2 2026-04-17 08:44 375K
20260417T06Z_MSC_RDPS_WindDir_IsbL-0175_RLatLon0.09_PT023H.grib2 2026-04-17 08:44 399K
20260417T06Z_MSC_RDPS_WindDir_IsbL-0200_RLatLon0.09_PT023H.grib2 2026-04-17 08:44 417K
20260417T06Z_MSC_RDPS_WindDir_IsbL-0225_RLatLon0.09_PT023H.grib2 2026-04-17 08:44 423K
20260417T06Z_MSC_RDPS_WindDir_IsbL-0250_RLatLon0.09_PT023H.grib2 2026-04-17 08:44 426K
20260417T06Z_MSC_RDPS_WindDir_IsbL-0275_RLatLon0.09_PT023H.grib2 2026-04-17 08:44 443K
20260417T06Z_MSC_RDPS_WindDir_IsbL-0300_RLatLon0.09_PT023H.grib2 2026-04-17 08:44 441K
20260417T06Z_MSC_RDPS_WindDir_IsbL-0350_RLatLon0.09_PT023H.grib2 2026-04-17 08:44 465K
20260417T06Z_MSC_RDPS_WindDir_IsbL-0400_RLatLon0.09_PT023H.grib2 2026-04-17 08:44 490K
20260417T06Z_MSC_RDPS_WindDir_IsbL-0450_RLatLon0.09_PT023H.grib2 2026-04-17 08:44 512K
20260417T06Z_MSC_RDPS_WindDir_IsbL-0500_RLatLon0.09_PT023H.grib2 2026-04-17 08:44 537K
20260417T06Z_MSC_RDPS_WindDir_IsbL-0550_RLatLon0.09_PT023H.grib2 2026-04-17 08:44 566K
20260417T06Z_MSC_RDPS_WindDir_IsbL-0600_RLatLon0.09_PT023H.grib2 2026-04-17 08:44 593K
20260417T06Z_MSC_RDPS_WindDir_IsbL-0650_RLatLon0.09_PT023H.grib2 2026-04-17 08:44 638K
20260417T06Z_MSC_RDPS_WindDir_IsbL-0700_RLatLon0.09_PT023H.grib2 2026-04-17 08:44 690K
20260417T06Z_MSC_RDPS_WindDir_IsbL-0750_RLatLon0.09_PT023H.grib2 2026-04-17 08:44 730K
20260417T06Z_MSC_RDPS_WindDir_IsbL-0800_RLatLon0.09_PT023H.grib2 2026-04-17 08:44 788K
20260417T06Z_MSC_RDPS_WindDir_IsbL-0850_RLatLon0.09_PT023H.grib2 2026-04-17 08:44 850K
20260417T06Z_MSC_RDPS_WindDir_IsbL-0875_RLatLon0.09_PT023H.grib2 2026-04-17 08:44 876K
20260417T06Z_MSC_RDPS_WindDir_IsbL-0900_RLatLon0.09_PT023H.grib2 2026-04-17 08:44 895K
20260417T06Z_MSC_RDPS_WindDir_IsbL-0925_RLatLon0.09_PT023H.grib2 2026-04-17 08:44 902K
20260417T06Z_MSC_RDPS_WindDir_IsbL-0950_RLatLon0.09_PT023H.grib2 2026-04-17 08:44 899K
20260417T06Z_MSC_RDPS_WindDir_IsbL-0970_RLatLon0.09_PT023H.grib2 2026-04-17 08:44 903K
20260417T06Z_MSC_RDPS_WindDir_IsbL-0985_RLatLon0.09_PT023H.grib2 2026-04-17 08:44 912K
20260417T06Z_MSC_RDPS_WindDir_IsbL-1000_RLatLon0.09_PT023H.grib2 2026-04-17 08:44 929K
20260417T06Z_MSC_RDPS_WindDir_IsbL-1015_RLatLon0.09_PT023H.grib2 2026-04-17 08:44 950K
20260417T06Z_MSC_RDPS_WindGust-Max_AGL-10m_RLatLon0.09_PT023H.grib2 2026-04-17 08:44 962K
20260417T06Z_MSC_RDPS_WindGust-Min_AGL-10m_RLatLon0.09_PT023H.grib2 2026-04-17 08:44 1.0M
20260417T06Z_MSC_RDPS_WindGust_AGL-10m_RLatLon0.09_PT023H.grib2 2026-04-17 08:44 1.0M
20260417T06Z_MSC_RDPS_WindSpeed_AGL-10m_RLatLon0.09_PT023H.grib2 2026-04-17 08:44 845K
20260417T06Z_MSC_RDPS_WindSpeed_AGL-120m_RLatLon0.09_PT023H.grib2 2026-04-17 08:44 540K
20260417T06Z_MSC_RDPS_WindSpeed_AGL-40m_RLatLon0.09_PT023H.grib2 2026-04-17 08:44 546K
20260417T06Z_MSC_RDPS_WindSpeed_AGL-80m_RLatLon0.09_PT023H.grib2 2026-04-17 08:44 543K
20260417T06Z_MSC_RDPS_WindSpeed_IsbL-0001_RLatLon0.09_PT023H.grib2 2026-04-17 08:44 296K
20260417T06Z_MSC_RDPS_WindSpeed_IsbL-0005_RLatLon0.09_PT023H.grib2 2026-04-17 08:44 341K
20260417T06Z_MSC_RDPS_WindSpeed_IsbL-0010_RLatLon0.09_PT023H.grib2 2026-04-17 08:44 351K
20260417T06Z_MSC_RDPS_WindSpeed_IsbL-0020_RLatLon0.09_PT023H.grib2 2026-04-17 08:44 370K
20260417T06Z_MSC_RDPS_WindSpeed_IsbL-0030_RLatLon0.09_PT023H.grib2 2026-04-17 08:44 331K
20260417T06Z_MSC_RDPS_WindSpeed_IsbL-0050_RLatLon0.09_PT023H.grib2 2026-04-17 08:44 369K
20260417T06Z_MSC_RDPS_WindSpeed_IsbL-0100_RLatLon0.09_PT023H.grib2 2026-04-17 08:44 484K
20260417T06Z_MSC_RDPS_WindSpeed_IsbL-0150_RLatLon0.09_PT023H.grib2 2026-04-17 08:44 370K
20260417T06Z_MSC_RDPS_WindSpeed_IsbL-0175_RLatLon0.09_PT023H.grib2 2026-04-17 08:44 397K
20260417T06Z_MSC_RDPS_WindSpeed_IsbL-0200_RLatLon0.09_PT023H.grib2 2026-04-17 08:44 434K
20260417T06Z_MSC_RDPS_WindSpeed_IsbL-0225_RLatLon0.09_PT023H.grib2 2026-04-17 08:44 443K
20260417T06Z_MSC_RDPS_WindSpeed_IsbL-0250_RLatLon0.09_PT023H.grib2 2026-04-17 08:44 449K
20260417T06Z_MSC_RDPS_WindSpeed_IsbL-0275_RLatLon0.09_PT023H.grib2 2026-04-17 08:44 463K
20260417T06Z_MSC_RDPS_WindSpeed_IsbL-0300_RLatLon0.09_PT023H.grib2 2026-04-17 08:44 458K
20260417T06Z_MSC_RDPS_WindSpeed_IsbL-0350_RLatLon0.09_PT023H.grib2 2026-04-17 08:44 467K
20260417T06Z_MSC_RDPS_WindSpeed_IsbL-0400_RLatLon0.09_PT023H.grib2 2026-04-17 08:44 470K
20260417T06Z_MSC_RDPS_WindSpeed_IsbL-0450_RLatLon0.09_PT023H.grib2 2026-04-17 08:44 453K
20260417T06Z_MSC_RDPS_WindSpeed_IsbL-0500_RLatLon0.09_PT023H.grib2 2026-04-17 08:44 453K
20260417T06Z_MSC_RDPS_WindSpeed_IsbL-0550_RLatLon0.09_PT023H.grib2 2026-04-17 08:44 455K
20260417T06Z_MSC_RDPS_WindSpeed_IsbL-0600_RLatLon0.09_PT023H.grib2 2026-04-17 08:44 583K
20260417T06Z_MSC_RDPS_WindSpeed_IsbL-0650_RLatLon0.09_PT023H.grib2 2026-04-17 08:44 605K
20260417T06Z_MSC_RDPS_WindSpeed_IsbL-0700_RLatLon0.09_PT023H.grib2 2026-04-17 08:44 629K
20260417T06Z_MSC_RDPS_WindSpeed_IsbL-0750_RLatLon0.09_PT023H.grib2 2026-04-17 08:44 657K
20260417T06Z_MSC_RDPS_WindSpeed_IsbL-0800_RLatLon0.09_PT023H.grib2 2026-04-17 08:44 707K
20260417T06Z_MSC_RDPS_WindSpeed_IsbL-0850_RLatLon0.09_PT023H.grib2 2026-04-17 08:44 763K
20260417T06Z_MSC_RDPS_WindSpeed_IsbL-0875_RLatLon0.09_PT023H.grib2 2026-04-17 08:44 787K
20260417T06Z_MSC_RDPS_WindSpeed_IsbL-0900_RLatLon0.09_PT023H.grib2 2026-04-17 08:44 806K
20260417T06Z_MSC_RDPS_WindSpeed_IsbL-0925_RLatLon0.09_PT023H.grib2 2026-04-17 08:44 867K
20260417T06Z_MSC_RDPS_WindSpeed_IsbL-0950_RLatLon0.09_PT023H.grib2 2026-04-17 08:44 870K
20260417T06Z_MSC_RDPS_WindSpeed_IsbL-0970_RLatLon0.09_PT023H.grib2 2026-04-17 08:44 866K
20260417T06Z_MSC_RDPS_WindSpeed_IsbL-0985_RLatLon0.09_PT023H.grib2 2026-04-17 08:44 858K
20260417T06Z_MSC_RDPS_WindSpeed_IsbL-1000_RLatLon0.09_PT023H.grib2 2026-04-17 08:44 855K
20260417T06Z_MSC_RDPS_WindSpeed_IsbL-1015_RLatLon0.09_PT023H.grib2 2026-04-17 08:44 845K
20260417T06Z_MSC_RDPS_WindU_AGL-10m_RLatLon0.09_PT023H.grib2 2026-04-17 08:44 434K
20260417T06Z_MSC_RDPS_WindU_AGL-120m_RLatLon0.09_PT023H.grib2 2026-04-17 08:44 419K
20260417T06Z_MSC_RDPS_WindU_AGL-40m_RLatLon0.09_PT023H.grib2 2026-04-17 08:44 542K
20260417T06Z_MSC_RDPS_WindU_AGL-80m_RLatLon0.09_PT023H.grib2 2026-04-17 08:44 422K
20260417T06Z_MSC_RDPS_WindU_IsbL-0001_RLatLon0.09_PT023H.grib2 2026-04-17 08:44 290K
20260417T06Z_MSC_RDPS_WindU_IsbL-0005_RLatLon0.09_PT023H.grib2 2026-04-17 08:44 306K
20260417T06Z_MSC_RDPS_WindU_IsbL-0010_RLatLon0.09_PT023H.grib2 2026-04-17 08:44 316K
20260417T06Z_MSC_RDPS_WindU_IsbL-0020_RLatLon0.09_PT023H.grib2 2026-04-17 08:44 333K
20260417T06Z_MSC_RDPS_WindU_IsbL-0030_RLatLon0.09_PT023H.grib2 2026-04-17 08:44 256K
20260417T06Z_MSC_RDPS_WindU_IsbL-0050_RLatLon0.09_PT023H.grib2 2026-04-17 08:44 361K
20260417T06Z_MSC_RDPS_WindU_IsbL-0100_RLatLon0.09_PT023H.grib2 2026-04-17 08:44 342K
20260417T06Z_MSC_RDPS_WindU_IsbL-0150_RLatLon0.09_PT023H.grib2 2026-04-17 08:44 389K
20260417T06Z_MSC_RDPS_WindU_IsbL-0175_RLatLon0.09_PT023H.grib2 2026-04-17 08:44 413K
20260417T06Z_MSC_RDPS_WindU_IsbL-0200_RLatLon0.09_PT023H.grib2 2026-04-17 08:44 430K
20260417T06Z_MSC_RDPS_WindU_IsbL-0225_RLatLon0.09_PT023H.grib2 2026-04-17 08:44 436K
20260417T06Z_MSC_RDPS_WindU_IsbL-0250_RLatLon0.09_PT023H.grib2 2026-04-17 08:44 341K
20260417T06Z_MSC_RDPS_WindU_IsbL-0275_RLatLon0.09_PT023H.grib2 2026-04-17 08:44 354K
20260417T06Z_MSC_RDPS_WindU_IsbL-0300_RLatLon0.09_PT023H.grib2 2026-04-17 08:44 347K
20260417T06Z_MSC_RDPS_WindU_IsbL-0350_RLatLon0.09_PT023H.grib2 2026-04-17 08:44 353K
20260417T06Z_MSC_RDPS_WindU_IsbL-0400_RLatLon0.09_PT023H.grib2 2026-04-17 08:44 457K
20260417T06Z_MSC_RDPS_WindU_IsbL-0450_RLatLon0.09_PT023H.grib2 2026-04-17 08:44 458K
20260417T06Z_MSC_RDPS_WindU_IsbL-0500_RLatLon0.09_PT023H.grib2 2026-04-17 08:44 460K
20260417T06Z_MSC_RDPS_WindU_IsbL-0550_RLatLon0.09_PT023H.grib2 2026-04-17 08:44 463K
20260417T06Z_MSC_RDPS_WindU_IsbL-0600_RLatLon0.09_PT023H.grib2 2026-04-17 08:44 472K
20260417T06Z_MSC_RDPS_WindU_IsbL-0650_RLatLon0.09_PT023H.grib2 2026-04-17 08:44 491K
20260417T06Z_MSC_RDPS_WindU_IsbL-0700_RLatLon0.09_PT023H.grib2 2026-04-17 08:44 512K
20260417T06Z_MSC_RDPS_WindU_IsbL-0750_RLatLon0.09_PT023H.grib2 2026-04-17 08:44 537K
20260417T06Z_MSC_RDPS_WindU_IsbL-0800_RLatLon0.09_PT023H.grib2 2026-04-17 08:44 579K
20260417T06Z_MSC_RDPS_WindU_IsbL-0850_RLatLon0.09_PT023H.grib2 2026-04-17 08:44 628K
20260417T06Z_MSC_RDPS_WindU_IsbL-0875_RLatLon0.09_PT023H.grib2 2026-04-17 08:44 647K
20260417T06Z_MSC_RDPS_WindU_IsbL-0900_RLatLon0.09_PT023H.grib2 2026-04-17 08:44 661K
20260417T06Z_MSC_RDPS_WindU_IsbL-0925_RLatLon0.09_PT023H.grib2 2026-04-17 08:44 669K
20260417T06Z_MSC_RDPS_WindU_IsbL-0950_RLatLon0.09_PT023H.grib2 2026-04-17 08:44 662K
20260417T06Z_MSC_RDPS_WindU_IsbL-0970_RLatLon0.09_PT023H.grib2 2026-04-17 08:44 660K
20260417T06Z_MSC_RDPS_WindU_IsbL-0985_RLatLon0.09_PT023H.grib2 2026-04-17 08:44 795K
20260417T06Z_MSC_RDPS_WindU_IsbL-1000_RLatLon0.09_PT023H.grib2 2026-04-17 08:44 792K
20260417T06Z_MSC_RDPS_WindU_IsbL-1015_RLatLon0.09_PT023H.grib2 2026-04-17 08:44 784K
20260417T06Z_MSC_RDPS_WindV_AGL-10m_RLatLon0.09_PT023H.grib2 2026-04-17 08:44 430K
20260417T06Z_MSC_RDPS_WindV_AGL-120m_RLatLon0.09_PT023H.grib2 2026-04-17 08:44 415K
20260417T06Z_MSC_RDPS_WindV_AGL-40m_RLatLon0.09_PT023H.grib2 2026-04-17 08:44 537K
20260417T06Z_MSC_RDPS_WindV_AGL-80m_RLatLon0.09_PT023H.grib2 2026-04-17 08:44 534K
20260417T06Z_MSC_RDPS_WindV_IsbL-0001_RLatLon0.09_PT023H.grib2 2026-04-17 08:44 266K
20260417T06Z_MSC_RDPS_WindV_IsbL-0005_RLatLon0.09_PT023H.grib2 2026-04-17 08:44 306K
20260417T06Z_MSC_RDPS_WindV_IsbL-0010_RLatLon0.09_PT023H.grib2 2026-04-17 08:44 315K
20260417T06Z_MSC_RDPS_WindV_IsbL-0020_RLatLon0.09_PT023H.grib2 2026-04-17 08:44 324K
20260417T06Z_MSC_RDPS_WindV_IsbL-0030_RLatLon0.09_PT023H.grib2 2026-04-17 08:44 324K
20260417T06Z_MSC_RDPS_WindV_IsbL-0050_RLatLon0.09_PT023H.grib2 2026-04-17 08:44 359K
20260417T06Z_MSC_RDPS_WindV_IsbL-0100_RLatLon0.09_PT023H.grib2 2026-04-17 08:44 429K
20260417T06Z_MSC_RDPS_WindV_IsbL-0150_RLatLon0.09_PT023H.grib2 2026-04-17 08:44 383K
20260417T06Z_MSC_RDPS_WindV_IsbL-0175_RLatLon0.09_PT023H.grib2 2026-04-17 08:44 410K
20260417T06Z_MSC_RDPS_WindV_IsbL-0200_RLatLon0.09_PT023H.grib2 2026-04-17 08:44 331K
20260417T06Z_MSC_RDPS_WindV_IsbL-0225_RLatLon0.09_PT023H.grib2 2026-04-17 08:44 337K
20260417T06Z_MSC_RDPS_WindV_IsbL-0250_RLatLon0.09_PT023H.grib2 2026-04-17 08:44 341K
20260417T06Z_MSC_RDPS_WindV_IsbL-0275_RLatLon0.09_PT023H.grib2 2026-04-17 08:44 353K
20260417T06Z_MSC_RDPS_WindV_IsbL-0300_RLatLon0.09_PT023H.grib2 2026-04-17 08:44 347K
20260417T06Z_MSC_RDPS_WindV_IsbL-0350_RLatLon0.09_PT023H.grib2 2026-04-17 08:44 352K
20260417T06Z_MSC_RDPS_WindV_IsbL-0400_RLatLon0.09_PT023H.grib2 2026-04-17 08:44 354K
20260417T06Z_MSC_RDPS_WindV_IsbL-0450_RLatLon0.09_PT023H.grib2 2026-04-17 08:44 455K
20260417T06Z_MSC_RDPS_WindV_IsbL-0500_RLatLon0.09_PT023H.grib2 2026-04-17 08:44 457K
20260417T06Z_MSC_RDPS_WindV_IsbL-0550_RLatLon0.09_PT023H.grib2 2026-04-17 08:44 460K
20260417T06Z_MSC_RDPS_WindV_IsbL-0600_RLatLon0.09_PT023H.grib2 2026-04-17 08:44 468K
20260417T06Z_MSC_RDPS_WindV_IsbL-0650_RLatLon0.09_PT023H.grib2 2026-04-17 08:44 471K
20260417T06Z_MSC_RDPS_WindV_IsbL-0700_RLatLon0.09_PT023H.grib2 2026-04-17 08:44 493K
20260417T06Z_MSC_RDPS_WindV_IsbL-0750_RLatLon0.09_PT023H.grib2 2026-04-17 08:44 519K
20260417T06Z_MSC_RDPS_WindV_IsbL-0800_RLatLon0.09_PT023H.grib2 2026-04-17 08:44 575K
20260417T06Z_MSC_RDPS_WindV_IsbL-0850_RLatLon0.09_PT023H.grib2 2026-04-17 08:44 613K
20260417T06Z_MSC_RDPS_WindV_IsbL-0875_RLatLon0.09_PT023H.grib2 2026-04-17 08:44 634K
20260417T06Z_MSC_RDPS_WindV_IsbL-0900_RLatLon0.09_PT023H.grib2 2026-04-17 08:44 650K
20260417T06Z_MSC_RDPS_WindV_IsbL-0925_RLatLon0.09_PT023H.grib2 2026-04-17 08:44 660K
20260417T06Z_MSC_RDPS_WindV_IsbL-0950_RLatLon0.09_PT023H.grib2 2026-04-17 08:44 659K
20260417T06Z_MSC_RDPS_WindV_IsbL-0970_RLatLon0.09_PT023H.grib2 2026-04-17 08:44 655K
20260417T06Z_MSC_RDPS_WindV_IsbL-0985_RLatLon0.09_PT023H.grib2 2026-04-17 08:44 789K
20260417T06Z_MSC_RDPS_WindV_IsbL-1000_RLatLon0.09_PT023H.grib2 2026-04-17 08:44 784K
20260417T06Z_MSC_RDPS_WindV_IsbL-1015_RLatLon0.09_PT023H.grib2 2026-04-17 08:44 777K